Weather Roundup
Issued by NWS

Home | Current Version | Previous Version | Graphics & Text | Print | Product List | Glossary Off
Versions: 1 2 3 4 5 6 7 8 9 10 11 12 13 14 15 16 17 18 19 20 21 22 23 24 25 26 27 28 29 30 31 32 33 34 35 36 37 38 39 40 41 42 43 44 45 46 47 48 49 50

235
NZUS93 KARX 291359
HRRWXR

CURRENT HOURLY OBSERVATIONS ACROSS
MUCH OF THE UPPER MISSISSIPPI VALLEY
NATIONAL WEATHER SERVICE LA CROSSE WI
900 AM CDT SUN MAY 29 2016


...SOUTHEAST MINNESOTA...


CITY           SKY/WX    TMP DP  RH WIND       PRES   REMARKS
ROCHESTER      PTSUNNY   64  60  87 W14       29.97R
ROCHESTER/MAYO CLOUDY    64  60  88 W14G21    29.95R
WINONA         CLOUDY    70  61  73 W5        29.93R
AUSTIN         MOSUNNY   64  59  82 W9        29.98R
ALBERT LEA     MOSUNNY   64  61  88 W5        29.99R
DODGE CENTER   SUNNY     64  61  88 W12G18    29.96R
PRESTON        MOSUNNY   65  58  78 NW15      29.97R
OWATONNA       SUNNY     64  59  82 W13       29.96R
FARIBAULT      SUNNY     64  61  88 W10       29.95R
$$

...ELSEWHERE IN MINNESOTA...


CITY           SKY/WX    TMP DP  RH WIND       PRES   REMARKS
MINNEAPOLIS    CLOUDY    65  58  78 W14       29.92R
INTNL FALLS    CLOUDY    57  54  89 NW10      29.82R FOG
DULUTH         CLOUDY    61  58  90 W10       29.82R FOG
RED WING       CLOUDY    64  61  88 W8        29.91R
REDWOOD FALLS  SUNNY     67  57  70 W15G22    29.96R
MANKATO        SUNNY     64  57  77 W15       29.97R
WORTHINGTON    SUNNY     65  60  84 W16       30.03R
FAIRMONT       MOSUNNY   66  57  72 W17       30.00R
$$

...SOUTHWEST WISCONSIN...


CITY           SKY/WX    TMP DP  RH WIND       PRES   REMARKS
LA CROSSE      CLOUDY    67  59  75 W8        29.93R
PRAIRIE DU CHI PTSUNNY   67  58  72 W9        29.96R
BOSCOBEL       PTSUNNY   69  62  78 SW8       29.96R
LONE ROCK      NOT AVBL
PLATTEVILLE    PTSUNNY   66  62  87 W14G20    29.98R
FORT MC COY    CLOUDY    64  61  88 W9        29.92R
MAUSTON-NEW LI CLOUDY    65  61  85 W13       29.91R
VIROQUA        CLOUDY    64  60  88 W14       29.95R
WIS DELLS      CLOUDY    64  60  85 SW9       29.93R
$$

...ELSEWHERE IN WISCONSIN...


CITY           SKY/WX    TMP DP  RH WIND       PRES   REMARKS
MILWAUKEE      MOSUNNY   71  61  70 SW16      29.95R
MADISON        CLOUDY    67  60  78 VRB7G17   29.94R
GREEN BAY      PTSUNNY   69  62  78 S10       29.87F
EAU CLAIRE     CLOUDY    63  60  90 W6        29.88R
BLACK RVR FLS  CLOUDY    65  63  92 W7        29.91R
MEDFORD        CLOUDY    61  61 100 W9        29.87R
WAUSAU         LGT RAIN  63  60  90 W13       29.85R
WIS RAPIDS     LGT RAIN  63  60  90 W13       29.90R
MARSHFIELD     CLOUDY    63  60  90 W12       29.89R
RICE LAKE      CLOUDY    62  58  88 CALM      29.89R
$$

...NORTHEAST IOWA...


CITY           SKY/WX    TMP DP  RH WIND       PRES   REMARKS
WATERLOO       SUNNY     68  60  75 W13       30.01R
DUBUQUE        MOSUNNY   67  61  81 W13       30.01R
DECORAH        MOSUNNY   66  61  82 W8G15     29.96R
MASON CITY     SUNNY     66  60  81 W15       30.02R
CHARLES CITY   MOSUNNY   66  63  88 W13       30.00R
OELWEIN        MOSUNNY   66  61  82 W14       30.01R
$$

...ELSEWHERE IN IOWA...


CITY           SKY/WX    TMP DP  RH WIND       PRES   REMARKS
DES MOINES     MOSUNNY   67  58  72 W7        30.07R
IOWA CITY      MOSUNNY   69  61  75 W14       30.06R
FORT DODGE     CLOUDY    66  57  72 W7        30.05R
MARSHALLTOWN   SUNNY     67  61  81 W10       30.05R
CEDAR RAPIDS   PTSUNNY   67  63  87 W15       30.04R
$$

...NORTHERN ILLINOIS...


CITY           SKY/WX    TMP DP  RH WIND       PRES   REMARKS
CHICAGO-OHARE  MOSUNNY   72  61  68 SW16G24   29.99R
CHICAGO-MIDWAY MOSUNNY   75  60  59 SW13G23   30.00R
MOLINE         CLOUDY    69  59  70 W13       30.03R
ROCKFORD       CLOUDY    69  60  73 W14       30.01R
PEORIA         SUNNY     72  60  66 W9        30.05R
$$

NOTE: "FAIR" INDICATES FEW OR NO CLOUDS BELOW 12,000 FEET WITH NO
SIGNIFICANT WEATHER AND/OR OBSTRUCTIONS TO VISIBILITY. WIND
SPEEDS ARE IN MILES-PER-HOUR.




USA.gov is the U.S. government's official web portal to all federal, state and local government web resources and services.